| time (UTC) | temp F | wind direction | speed MPH | gust MPH | rain 1hr in | rain 24hr in | rain mn in | humidity % | barometer mb |
| 20260507071017 | 41 | 207 | 3.0 | 8.0 | 0.00 | 0.45 | 0.00 | 87 | 1005.4 |
| 20260507070517 | 41 | 198 | 3.0 | 7.0 | 0.00 | 0.45 | 0.00 | 87 | 1005.5 |
| 20260507070030 | 41 | 0 | 2.0 | 9.0 | 0.00 | 0.45 | 0.00 | 87 | 1005.6 |
| 20260507065514 | 41 | 162 | 4.0 | 10.0 | 0.00 | 0.45 | 0.00 | 87 | 1005.5 |
| 20260507065016 | 41 | 200 | 2.0 | 10.0 | 0.00 | 0.45 | 0.00 | 87 | 1005.6 |
| 20260507064538 | 41 | 183 | 4.0 | 10.0 | 0.00 | 0.45 | 0.00 | 87 | 1005.6 |
| 20260507064015 | 41 | 158 | 2.0 | 7.0 | 0.00 | 0.45 | 0.00 | 87 | 1005.6 |
| 20260507063518 | 41 | 192 | 1.0 | 7.0 | 0.00 | 0.45 | 0.00 | 87 | 1005.7 |
| 20260507063031 | 41 | 184 | 2.0 | 9.0 | 0.00 | 0.45 | 0.00 | 87 | 1005.6 |
| 20260507062515 | 41 | 223 | 3.0 | 9.0 | 0.00 | 0.45 | 0.00 | 87 | 1005.7 |
| 20260507062015 | 41 | 171 | 2.0 | 6.0 | 0.00 | 0.45 | 0.00 | 87 | 1005.7 |
| 20260507061537 | 41 | 180 | 2.0 | 7.0 | 0.00 | 0.45 | 0.00 | 88 | 1005.8 |
| 20260507061016 | 41 | 204 | 3.0 | 7.0 | 0.00 | 0.45 | 0.00 | 88 | 1005.8 |
| 20260507060515 | 41 | 172 | 2.0 | 8.0 | 0.00 | 0.45 | 0.00 | 88 | 1005.9 |
| 20260507060037 | 41 | 180 | 2.0 | 8.0 | 0.00 | 0.45 | 0.00 | 88 | 1005.9 |
| 20260507055516 | 41 | 157 | 2.0 | 7.0 | 0.00 | 0.45 | 0.00 | 88 | 1006.1 |
| 20260507055015 | 41 | 181 | 3.0 | 7.0 | 0.00 | 0.45 | 0.00 | 88 | 1006.1 |
| 20260507054539 | 41 | 210 | 2.0 | 7.0 | 0.00 | 0.45 | 0.00 | 88 | 1006.1 |
| 20260507054020 | 41 | 0 | 4.0 | 7.0 | 0.00 | 0.45 | 0.00 | 88 | 1006.3 |
| 20260507053517 | 41 | 223 | 3.0 | 6.0 | 0.00 | 0.45 | 0.00 | 88 | 1006.4 |
| 20260507053032 | 41 | 205 | 1.0 | 8.0 | 0.00 | 0.45 | 0.00 | 88 | 1006.5 |
| 20260507052515 | 41 | 190 | 3.0 | 8.0 | 0.00 | 0.45 | 0.00 | 89 | 1006.6 |
| 20260507052016 | 41 | 173 | 2.0 | 9.0 | 0.00 | 0.45 | 0.00 | 89 | 1006.7 |
| 20260507051532 | 41 | 184 | 3.0 | 9.0 | 0.00 | 0.45 | 0.00 | 89 | 1006.7 |
| 20260507051021 | 41 | 208 | 1.0 | 6.0 | 0.00 | 0.45 | 0.00 | 89 | 1006.7 |
| 20260507050515 | 41 | 198 | 2.0 | 6.0 | 0.00 | 0.45 | 0.00 | 89 | 1006.8 |
| 20260507050058 | 41 | 184 | 2.0 | 5.0 | 0.00 | 0.45 | 0.00 | 89 | 1006.8 |
| 20260507045515 | 41 | 179 | 2.0 | 5.0 | 0.00 | 0.45 | 0.00 | 89 | 1006.8 |
| 20260507045015 | 41 | 188 | 1.0 | 5.0 | 0.00 | 0.45 | 0.00 | 89 | 1006.9 |
| 20260507044546 | 41 | 197 | 1.0 | 5.0 | 0.00 | 0.45 | 0.00 | 89 | 1006.9 |
| 20260507044015 | 41 | 178 | 2.0 | 5.0 | 0.00 | 0.45 | 0.00 | 89 | 1007.0 |
| 20260507043515 | 41 | 173 | 1.0 | 5.0 | 0.00 | 0.45 | 0.00 | 89 | 1007.0 |
| 20260507043032 | 41 | 208 | 2.0 | 5.0 | 0.00 | 0.45 | 0.00 | 89 | 1007.1 |
| 20260507042516 | 41 | 183 | 1.0 | 5.0 | 0.00 | 0.45 | 0.00 | 89 | 1007.1 |
| 20260507042015 | 41 | 182 | 2.0 | 5.0 | 0.00 | 0.45 | 0.00 | 89 | 1007.2 |
| 20260507041529 | 42 | 194 | 0.0 | 4.0 | 0.00 | 0.45 | 0.00 | 89 | 1007.2 |
| 20260507041015 | 42 | 188 | 1.0 | 4.0 | 0.00 | 0.45 | 0.00 | 89 | 1007.2 |
| 20260507040516 | 42 | 0 | 1.0 | 4.0 | 0.00 | 0.45 | 0.00 | 89 | 1007.2 |
| 20260507040029 | 42 | 180 | 1.0 | 3.0 | 0.00 | 0.45 | 0.00 | 89 | 1007.3 |
| 20260507035515 | 42 | 198 | 1.0 | 3.0 | 0.00 | 0.47 | 0.45 | 89 | 1007.3 |
| 20260507035015 | 42 | 0 | 0.0 | 2.0 | 0.00 | 0.47 | 0.45 | 89 | 1007.3 |
| 20260507034538 | 42 | 244 | 1.0 | 3.0 | 0.00 | 0.47 | 0.45 | 89 | 1007.3 |
| 20260507034018 | 42 | 0 | 0.0 | 3.0 | 0.00 | 0.47 | 0.45 | 89 | 1007.2 |
| 20260507033515 | 42 | 284 | 0.0 | 1.0 | 0.00 | 0.47 | 0.45 | 88 | 1007.2 |
| 20260507033038 | 42 | 0 | 0.0 | 1.0 | 0.00 | 0.47 | 0.45 | 88 | 1007.1 |
| 20260507032516 | 42 | 0 | 0.0 | 1.0 | 0.00 | 0.47 | 0.45 | 88 | 1007.2 |
| 20260507032015 | 42 | 0 | 0.0 | 1.0 | 0.00 | 0.47 | 0.45 | 88 | 1007.3 |
| 20260507031533 | 42 | 0 | 0.0 | 1.0 | 0.00 | 0.47 | 0.45 | 88 | 1007.4 |
| 20260507031016 | 42 | 0 | 0.0 | 1.0 | 0.00 | 0.47 | 0.45 | 88 | 1007.4 |
| 20260507030517 | 42 | 0 | 0.0 | 1.0 | 0.00 | 0.47 | 0.45 | 88 | 1007.4 |
| 20260507030036 | 42 | 0 | 0.0 | 1.0 | 0.00 | 0.47 | 0.45 | 88 | 1007.5 |
| 20260507025515 | 42 | 0 | 0.0 | 1.0 | 0.00 | 0.51 | 0.45 | 88 | 1007.4 |
| 20260507025018 | 42 | 0 | 0.0 | 1.0 | 0.00 | 0.51 | 0.45 | 88 | 1007.6 |
| 20260507024541 | 42 | 0 | 0.0 | 2.0 | 0.00 | 0.51 | 0.45 | 88 | 1007.7 |
| 20260507024015 | 42 | 0 | 0.0 | 2.0 | 0.00 | 0.51 | 0.45 | 88 | 1007.6 |
| 20260507023515 | 42 | 286 | 0.0 | 2.0 | 0.00 | 0.51 | 0.45 | 88 | 1007.7 |
| 20260507023032 | 42 | 0 | 0.0 | 1.0 | 0.00 | 0.51 | 0.45 | 88 | 1007.6 |
| 20260507022515 | 42 | 0 | 0.0 | 2.0 | 0.00 | 0.51 | 0.45 | 88 | 1007.5 |
| 20260507022015 | 42 | 0 | 0.0 | 2.0 | 0.00 | 0.51 | 0.45 | 88 | 1007.5 |
| 20260507021547 | 42 | 0 | 0.0 | 3.0 | 0.00 | 0.51 | 0.45 | 88 | 1007.9 |
| 20260507021015 | 43 | 0 | 0.0 | 3.0 | 0.00 | 0.51 | 0.45 | 88 | 1007.9 |
| 20260507020514 | 43 | 288 | 0.0 | 2.0 | 0.00 | 0.51 | 0.45 | 88 | 1007.8 |
| 20260507020032 | 43 | 289 | 1.0 | 2.0 | 0.00 | 0.51 | 0.45 | 88 | 1007.8 |
| 20260507015518 | 43 | 294 | 0.0 | 2.0 | 0.00 | 0.51 | 0.45 | 88 | 1007.6 |
| 20260507015019 | 43 | 0 | 0.0 | 2.0 | 0.00 | 0.51 | 0.45 | 87 | 1007.6 |
| 20260507014532 | 43 | 0 | 0.0 | 2.0 | 0.00 | 0.51 | 0.45 | 87 | 1007.6 |
| 20260507014020 | 43 | 294 | 0.0 | 2.0 | 0.00 | 0.51 | 0.45 | 87 | 1007.6 |
| 20260507013515 | 43 | 0 | 0.0 | 3.0 | 0.00 | 0.51 | 0.45 | 87 | 1007.5 |
| 20260507013036 | 43 | 0 | 0.0 | 3.0 | 0.00 | 0.51 | 0.45 | 87 | 1007.6 |
| 20260507012517 | 43 | 355 | 0.0 | 2.0 | 0.00 | 0.51 | 0.45 | 87 | 1007.5 |
| 20260507012015 | 43 | 355 | 0.0 | 1.0 | 0.00 | 0.51 | 0.45 | 87 | 1007.5 |
| 20260507011537 | 43 | 0 | 0.0 | 2.0 | 0.00 | 0.51 | 0.45 | 87 | 1007.4 |
| 20260507011017 | 43 | 0 | 0.0 | 2.0 | 0.00 | 0.51 | 0.45 | 87 | 1007.4 |
| 20260507010518 | 43 | 355 | 0.0 | 2.0 | 0.00 | 0.51 | 0.45 | 87 | 1007.4 |
| 20260507010043 | 44 | 0 | 0.0 | 2.0 | 0.00 | 0.51 | 0.45 | 86 | 1007.4 |
| 20260507005515 | 44 | 0 | 0.0 | 2.0 | 0.00 | 0.51 | 0.45 | 86 | 1007.4 |
| 20260507005024 | 44 | 355 | 0.0 | 2.0 | 0.00 | 0.51 | 0.45 | 86 | 1007.3 |
| 20260507004536 | 44 | 0 | 0.0 | 1.0 | 0.00 | 0.51 | 0.45 | 86 | 1007.3 |
| 20260507004018 | 44 | 0 | 0.0 | 1.0 | 0.00 | 0.51 | 0.45 | 86 | 1007.4 |
| 20260507003519 | 44 | 0 | 0.0 | 2.0 | 0.00 | 0.51 | 0.45 | 86 | 1007.4 |
| 20260507003036 | 44 | 0 | 0.0 | 2.0 | 0.00 | 0.51 | 0.45 | 86 | 1007.2 |
| 20260507002518 | 44 | 355 | 0.0 | 2.0 | 0.00 | 0.51 | 0.45 | 86 | 1007.2 |
| 20260507002018 | 44 | 0 | 0.0 | 1.0 | 0.00 | 0.51 | 0.45 | 86 | 1007.3 |
| 20260507001534 | 44 | 0 | 0.0 | 1.0 | 0.00 | 0.51 | 0.45 | 86 | 1007.3 |
| 20260507001015 | 44 | 0 | 0.0 | 1.0 | 0.00 | 0.51 | 0.45 | 85 | 1007.3 |
| 20260507000522 | 44 | 0 | 0.0 | 2.0 | 0.00 | 0.51 | 0.45 | 85 | 1007.2 |
| 20260507000035 | 44 | 0 | 0.0 | 2.0 | 0.00 | 0.51 | 0.45 | 85 | 1007.2 |
| 20260506235516 | 44 | 0 | 0.0 | 1.0 | 0.00 | 0.51 | 0.45 | 85 | 1007.2 |
| 20260506235020 | 44 | 355 | 0.0 | 2.0 | 0.00 | 0.51 | 0.45 | 85 | 1007.2 |
| 20260506234548 | 44 | 0 | 0.0 | 2.0 | 0.00 | 0.51 | 0.45 | 85 | 1007.2 |
| 20260506234018 | 45 | 0 | 0.0 | 2.0 | 0.00 | 0.51 | 0.45 | 85 | 1007.2 |
| 20260506233516 | 45 | 355 | 0.0 | 2.0 | 0.00 | 0.51 | 0.45 | 85 | 1007.1 |
| 20260506233036 | 45 | 0 | 0.0 | 2.0 | 0.00 | 0.51 | 0.45 | 85 | 1007.2 |
| 20260506232522 | 45 | 0 | 0.0 | 2.0 | 0.00 | 0.51 | 0.45 | 84 | 1007.2 |
| 20260506232017 | 45 | 355 | 0.0 | 2.0 | 0.00 | 0.51 | 0.45 | 84 | 1007.1 |
| 20260506231532 | 45 | 0 | 0.0 | 2.0 | 0.00 | 0.51 | 0.45 | 84 | 1007.0 |
| 20260506231016 | 45 | 0 | 0.0 | 2.0 | 0.00 | 0.51 | 0.45 | 84 | 1007.0 |
| 20260506230515 | 45 | 0 | 0.0 | 2.0 | 0.00 | 0.51 | 0.45 | 84 | 1007.0 |
| 20260506230035 | 45 | 355 | 0.0 | 2.0 | 0.00 | 0.51 | 0.45 | 85 | 1007.2 |
| 20260506225518 | 45 | 0 | 0.0 | 2.0 | 0.00 | 0.51 | 0.45 | 85 | 1007.0 |
| 20260506225015 | 45 | 0 | 0.0 | 1.0 | 0.00 | 0.51 | 0.45 | 84 | 1007.0 |
| 20260506224534 | 45 | 0 | 0.0 | 1.0 | 0.00 | 0.51 | 0.45 | 84 | 1007.1 |
| 20260506224019 | 45 | 0 | 0.0 | 2.0 | 0.00 | 0.51 | 0.45 | 84 | 1007.0 |
| 20260506223516 | 45 | 0 | 0.0 | 2.0 | 0.00 | 0.51 | 0.45 | 84 | 1007.0 |
| 20260506223033 | 45 | 0 | 0.0 | 0.0 | 0.00 | 0.51 | 0.45 | 84 | 1007.1 |
| 20260506222512 | 45 | 0 | 0.0 | 0.0 | 0.00 | 0.51 | 0.45 | 84 | 1007.1 |
| 20260506222016 | 45 | 0 | 0.0 | 0.0 | 0.00 | 0.51 | 0.45 | 84 | 1007.0 |
| 20260506221530 | 45 | 0 | 0.0 | 0.0 | 0.00 | 0.51 | 0.45 | 84 | 1007.0 |
| 20260506221016 | 45 | 0 | 0.0 | 0.0 | 0.00 | 0.51 | 0.45 | 84 | 1007.2 |
| 20260506220514 | 45 | 0 | 0.0 | 1.0 | 0.00 | 0.51 | 0.45 | 84 | 1007.3 |
| 20260506220036 | 45 | 0 | 0.0 | 1.0 | 0.00 | 0.51 | 0.45 | 83 | 1007.3 |
| 20260506215516 | 45 | 0 | 0.0 | 1.0 | 0.00 | 0.51 | 0.45 | 84 | 1007.3 |
| 20260506215015 | 45 | 0 | 0.0 | 2.0 | 0.00 | 0.51 | 0.45 | 84 | 1007.4 |
| 20260506214532 | 45 | 0 | 0.0 | 2.0 | 0.00 | 0.51 | 0.45 | 84 | 1007.3 |
| 20260506214016 | 45 | 0 | 0.0 | 2.0 | 0.00 | 0.51 | 0.45 | 84 | 1007.3 |
| 20260506213515 | 45 | 0 | 1.0 | 2.0 | 0.00 | 0.51 | 0.45 | 83 | 1007.3 |
| 20260506213032 | 45 | 0 | 0.0 | 2.0 | 0.00 | 0.51 | 0.45 | 84 | 1007.3 |
| 20260506212515 | 45 | 343 | 0.0 | 2.0 | 0.00 | 0.51 | 0.45 | 84 | 1007.4 |
| 20260506212018 | 45 | 0 | 0.0 | 2.0 | 0.00 | 0.51 | 0.45 | 83 | 1007.3 |
| 20260506211530 | 45 | 0 | 0.0 | 2.0 | 0.00 | 0.51 | 0.45 | 83 | 1007.2 |
| 20260506211015 | 45 | 0 | 0.0 | 2.0 | 0.00 | 0.51 | 0.45 | 83 | 1007.3 |
| 20260506210513 | 45 | 355 | 1.0 | 2.0 | 0.00 | 0.51 | 0.45 | 82 | 1007.2 |
| 20260506210036 | 46 | 0 | 0.0 | 2.0 | 0.00 | 0.51 | 0.45 | 82 | 1007.3 |
| 20260506205515 | 46 | 0 | 0.0 | 2.0 | 0.00 | 0.51 | 0.45 | 83 | 1007.2 |
| 20260506205018 | 46 | 17 | 0.0 | 2.0 | 0.00 | 0.51 | 0.45 | 83 | 1007.3 |
| 20260506204547 | 46 | 0 | 0.0 | 3.0 | 0.00 | 0.51 | 0.45 | 82 | 1007.2 |
| 20260506204017 | 46 | 304 | 1.0 | 4.0 | 0.00 | 0.51 | 0.45 | 83 | 1007.2 |
| 20260506203520 | 46 | 290 | 0.0 | 4.0 | 0.00 | 0.51 | 0.45 | 83 | 1007.2 |
| 20260506203032 | 46 | 0 | 1.0 | 4.0 | 0.00 | 0.51 | 0.45 | 82 | 1007.0 |
| 20260506202513 | 46 | 5 | 0.0 | 3.0 | 0.00 | 0.51 | 0.45 | 82 | 1007.2 |
| 20260506202017 | 46 | 5 | 1.0 | 3.0 | 0.00 | 0.51 | 0.45 | 82 | 1007.0 |
| 20260506201535 | 46 | 9 | 1.0 | 2.0 | 0.00 | 0.51 | 0.45 | 82 | 1007.1 |
| 20260506201014 | 46 | 0 | 0.0 | 2.0 | 0.00 | 0.51 | 0.45 | 82 | 1007.2 |
| 20260506200516 | 46 | 0 | 0.0 | 2.0 | 0.00 | 0.51 | 0.45 | 82 | 1007.2 |
| 20260506200034 | 46 | 0 | 0.0 | 1.0 | 0.00 | 0.51 | 0.45 | 83 | 1007.2 |
| 20260506195513 | 46 | 0 | 0.0 | 1.0 | 0.00 | 0.51 | 0.45 | 82 | 1007.2 |
| 20260506195019 | 46 | 0 | 0.0 | 2.0 | 0.00 | 0.51 | 0.45 | 81 | 1007.1 |
| 20260506194535 | 46 | 0 | 0.0 | 3.0 | 0.01 | 0.51 | 0.45 | 80 | 1007.3 |
| 20260506194015 | 46 | 84 | 1.0 | 3.0 | 0.01 | 0.51 | 0.45 | 83 | 1007.3 |
| 20260506193515 | 46 | 74 | 1.0 | 3.0 | 0.01 | 0.51 | 0.45 | 83 | 1007.2 |
| 20260506193035 | 46 | 5 | 1.0 | 3.0 | 0.01 | 0.51 | 0.45 | 85 | 1007.3 |
| 20260506192518 | 46 | 355 | 1.0 | 2.0 | 0.01 | 0.51 | 0.45 | 84 | 1007.5 |
| 20260506192016 | 46 | 355 | 1.0 | 2.0 | 0.01 | 0.51 | 0.45 | 84 | 1007.4 |
| 20260506191535 | 45 | 0 | 0.0 | 2.0 | 0.01 | 0.51 | 0.45 | 84 | 1007.4 |
| 20260506191018 | 45 | 0 | 0.0 | 2.0 | 0.01 | 0.51 | 0.45 | 85 | 1007.5 |
| 20260506190516 | 45 | 305 | 0.0 | 2.0 | 0.01 | 0.51 | 0.45 | 85 | 1007.6 |
| 20260506190034 | 45 | 305 | 0.0 | 2.0 | 0.01 | 0.51 | 0.45 | 85 | 1007.6 |
| 20260506185515 | 45 | 0 | 0.0 | 2.0 | 0.01 | 0.52 | 0.45 | 85 | 1007.6 |
| 20260506185015 | 45 | 0 | 0.0 | 3.0 | 0.01 | 0.52 | 0.45 | 86 | 1007.6 |
| 20260506184531 | 45 | 0 | 0.0 | 3.0 | 0.01 | 0.51 | 0.44 | 86 | 1007.6 |
| 20260506184018 | 45 | 280 | 0.0 | 3.0 | 0.01 | 0.51 | 0.44 | 86 | 1007.7 |
| 20260506183517 | 44 | 348 | 1.0 | 3.0 | 0.01 | 0.51 | 0.44 | 86 | 1007.6 |
| 20260506183040 | 44 | 0 | 0.0 | 4.0 | 0.01 | 0.51 | 0.44 | 86 | 1007.8 |
| 20260506182517 | 44 | 271 | 2.0 | 4.0 | 0.02 | 0.51 | 0.44 | 85 | 1007.8 |
| 20260506182016 | 44 | 13 | 1.0 | 3.0 | 0.02 | 0.51 | 0.44 | 87 | 1008.0 |
| 20260506181537 | 44 | 15 | 1.0 | 3.0 | 0.03 | 0.51 | 0.44 | 87 | 1007.9 |
| 20260506181019 | 44 | 308 | 0.0 | 3.0 | 0.03 | 0.51 | 0.44 | 87 | 1007.9 |
| 20260506180519 | 44 | 279 | 1.0 | 3.0 | 0.04 | 0.51 | 0.44 | 87 | 1008.0 |
| 20260506180035 | 44 | 283 | 1.0 | 3.0 | 0.04 | 0.51 | 0.44 | 86 | 1008.0 |
| 20260506175515 | 44 | 0 | 0.0 | 0.0 | 0.05 | 0.75 | 0.44 | 87 | 1008.1 |
| 20260506175015 | 44 | 0 | 0.0 | 2.0 | 0.06 | 0.75 | 0.44 | 86 | 1008.1 |
| 20260506174534 | 44 | 0 | 0.0 | 2.0 | 0.05 | 0.74 | 0.43 | 88 | 1008.0 |
| 20260506174020 | 44 | 0 | 0.0 | 2.0 | 0.06 | 0.74 | 0.43 | 88 | 1008.1 |
| 20260506173515 | 43 | 325 | 0.0 | 2.0 | 0.06 | 0.74 | 0.43 | 87 | 1008.1 |
| 20260506173032 | 43 | 0 | 0.0 | 2.0 | 0.06 | 0.73 | 0.42 | 86 | 1008.1 |
| 20260506172518 | 44 | 0 | 0.0 | 2.0 | 0.07 | 0.73 | 0.42 | 86 | 1008.2 |
| 20260506172015 | 44 | 0 | 0.0 | 2.0 | 0.07 | 0.73 | 0.42 | 86 | 1008.3 |
| 20260506171543 | 44 | 343 | 0.0 | 3.0 | 0.07 | 0.72 | 0.41 | 87 | 1008.4 |
| 20260506171018 | 44 | 337 | 0.0 | 3.0 | 0.08 | 0.72 | 0.41 | 87 | 1008.5 |
| 20260506170518 | 44 | 0 | 0.0 | 0.0 | 0.07 | 0.71 | 0.40 | 87 | 1008.5 |
| 20260506170043 | 44 | 0 | 0.0 | 0.0 | 0.08 | 0.71 | 0.40 | 86 | 1008.5 |
| 20260506165519 | 44 | 0 | 0.0 | 0.0 | 0.08 | 0.70 | 0.39 | 86 | 1008.6 |
| 20260506165016 | 44 | 0 | 0.0 | 3.0 | 0.07 | 0.69 | 0.38 | 86 | 1008.6 |
| 20260506164544 | 44 | 0 | 0.0 | 4.0 | 0.08 | 0.69 | 0.38 | 86 | 1008.7 |
| 20260506164017 | 44 | 290 | 1.0 | 4.0 | 0.08 | 0.68 | 0.37 | 86 | 1008.7 |
| 20260506163518 | 44 | 294 | 1.0 | 3.0 | 0.08 | 0.68 | 0.37 | 86 | 1008.7 |
| 20260506163031 | 44 | 0 | 0.0 | 2.0 | 0.08 | 0.67 | 0.36 | 86 | 1008.8 |
| 20260506162515 | 44 | 0 | 0.0 | 2.0 | 0.07 | 0.66 | 0.35 | 86 | 1008.7 |
| 20260506162015 | 44 | 0 | 1.0 | 2.0 | 0.08 | 0.66 | 0.35 | 86 | 1008.7 |
| 20260506161538 | 44 | 259 | 0.0 | 2.0 | 0.08 | 0.65 | 0.34 | 86 | 1008.7 |
| 20260506161016 | 44 | 286 | 0.0 | 3.0 | 0.07 | 0.64 | 0.33 | 87 | 1008.9 |
| 20260506160518 | 44 | 281 | 0.0 | 3.0 | 0.07 | 0.63 | 0.32 | 87 | 1008.9 |
| 20260506160042 | 44 | 0 | 0.0 | 3.0 | 0.08 | 0.63 | 0.32 | 87 | 1009.0 |
| 20260506155515 | 44 | 0 | 0.0 | 3.0 | 0.08 | 0.62 | 0.31 | 87 | 1009.0 |
| 20260506155016 | 44 | 271 | 1.0 | 3.0 | 0.09 | 0.62 | 0.31 | 86 | 1009.2 |
| 20260506154532 | 44 | 0 | 0.0 | 2.0 | 0.08 | 0.61 | 0.30 | 86 | 1009.3 |
| 20260506154016 | 44 | 279 | 0.0 | 3.0 | 0.08 | 0.60 | 0.29 | 86 | 1009.4 |
| 20260506153517 | 44 | 285 | 0.0 | 3.0 | 0.08 | 0.60 | 0.29 | 86 | 1009.4 |
| 20260506153029 | 44 | 294 | 1.0 | 3.0 | 0.08 | 0.58 | 0.28 | 86 | 1009.4 |
| 20260506152515 | 44 | 0 | 1.0 | 3.0 | 0.08 | 0.58 | 0.28 | 86 | 1009.4 |
| 20260506152017 | 44 | 300 | 1.0 | 3.0 | 0.08 | 0.58 | 0.27 | 86 | 1009.4 |
| 20260506151543 | 43 | 0 | 0.0 | 3.0 | 0.07 | 0.57 | 0.26 | 87 | 1009.3 |
| 20260506151015 | 43 | 298 | 0.0 | 3.0 | 0.07 | 0.56 | 0.25 | 86 | 1009.5 |
| 20260506150519 | 43 | 296 | 1.0 | 4.0 | 0.07 | 0.56 | 0.25 | 86 | 1009.4 |
| 20260506150033 | 43 | 0 | 1.0 | 4.0 | 0.07 | 0.55 | 0.24 | 85 | 1009.4 |
| 20260506145516 | 43 | 292 | 1.0 | 6.0 | 0.06 | 0.60 | 0.23 | 86 | 1009.5 |
| 20260506145019 | 43 | 286 | 2.0 | 6.0 | 0.06 | 0.58 | 0.22 | 86 | 1009.5 |
| 20260506144532 | 43 | 273 | 1.0 | 3.0 | 0.07 | 0.58 | 0.22 | 86 | 1009.6 |
| 20260506144025 | 43 | 283 | 1.0 | 3.0 | 0.06 | 0.58 | 0.21 | 86 | 1009.6 |
| 20260506143519 | 43 | 0 | 1.0 | 3.0 | 0.07 | 0.58 | 0.21 | 86 | 1009.6 |
| 20260506143043 | 44 | 254 | 1.0 | 4.0 | 0.07 | 0.57 | 0.20 | 86 | 1009.6 |
| 20260506142515 | 44 | 250 | 1.0 | 4.0 | 0.08 | 0.57 | 0.20 | 86 | 1009.5 |
| 20260506142015 | 44 | 258 | 2.0 | 4.0 | 0.08 | 0.56 | 0.19 | 87 | 1009.7 |
| 20260506141529 | 44 | 286 | 1.0 | 4.0 | 0.09 | 0.56 | 0.19 | 87 | 1009.7 |
| 20260506141016 | 43 | 277 | 1.0 | 5.0 | 0.08 | 0.55 | 0.18 | 86 | 1009.6 |
| 20260506140515 | 44 | 246 | 2.0 | 5.0 | 0.09 | 0.55 | 0.18 | 86 | 1009.7 |
| 20260506140036 | 44 | 280 | 1.0 | 7.0 | 0.08 | 0.54 | 0.17 | 86 | 1009.7 |
| 20260506135515 | 44 | 0 | 2.0 | 7.0 | 0.09 | 0.57 | 0.17 | 86 | 1009.7 |
| 20260506135018 | 44 | 282 | 2.0 | 6.0 | 0.08 | 0.56 | 0.16 | 86 | 1009.7 |
| 20260506134531 | 44 | 277 | 2.0 | 6.0 | 0.07 | 0.55 | 0.15 | 86 | 1009.6 |
| 20260506134014 | 44 | 276 | 1.0 | 3.0 | 0.08 | 0.55 | 0.15 | 86 | 1009.5 |
| 20260506133515 | 44 | 292 | 0.0 | 4.0 | 0.07 | 0.54 | 0.14 | 87 | 1009.5 |
| 20260506133031 | 44 | 0 | 0.0 | 6.0 | 0.07 | 0.52 | 0.13 | 86 | 1009.6 |
| 20260506132518 | 44 | 305 | 1.0 | 7.0 | 0.07 | 0.52 | 0.12 | 85 | 1009.4 |
| 20260506132014 | 44 | 297 | 2.0 | 7.0 | 0.06 | 0.51 | 0.11 | 85 | 1009.5 |
| 20260506131532 | 44 | 271 | 2.0 | 4.0 | 0.06 | 0.50 | 0.10 | 86 | 1009.5 |
| 20260506131019 | 44 | 282 | 1.0 | 4.0 | 0.07 | 0.50 | 0.10 | 85 | 1009.3 |
| 20260506130519 | 44 | 236 | 1.0 | 4.0 | 0.06 | 0.49 | 0.09 | 85 | 1009.3 |
| 20260506130030 | 44 | 278 | 1.0 | 4.0 | 0.06 | 0.49 | 0.09 | 85 | 1009.2 |
| 20260506125515 | 45 | 287 | 1.0 | 4.0 | 0.06 | 0.48 | 0.08 | 85 | 1009.2 |
| 20260506125018 | 45 | 277 | 1.0 | 4.0 | 0.06 | 0.48 | 0.08 | 85 | 1009.3 |
| 20260506124529 | 45 | 304 | 1.0 | 4.0 | 0.06 | 0.47 | 0.07 | 86 | 1009.2 |
| 20260506124015 | 45 | 303 | 1.0 | 4.0 | 0.06 | 0.47 | 0.07 | 86 | 1009.2 |
| 20260506123515 | 45 | 291 | 1.0 | 4.0 | 0.06 | 0.47 | 0.07 | 85 | 1009.2 |
| 20260506123034 | 45 | 304 | 2.0 | 4.0 | 0.05 | 0.46 | 0.06 | 85 | 1009.3 |
| 20260506122514 | 45 | 300 | 1.0 | 4.0 | 0.04 | 0.45 | 0.05 | 85 | 1009.4 |
| 20260506122013 | 45 | 0 | 1.0 | 3.0 | 0.03 | 0.44 | 0.04 | 85 | 1009.5 |
| 20260506121533 | 45 | 233 | 0.0 | 2.0 | 0.04 | 0.44 | 0.04 | 85 | 1009.6 |
| 20260506121017 | 45 | 279 | 0.0 | 4.0 | 0.03 | 0.43 | 0.03 | 84 | 1009.7 |
| 20260506120518 | 45 | 308 | 1.0 | 4.0 | 0.03 | 0.43 | 0.03 | 84 | 1009.7 |
| 20260506120032 | 45 | 279 | 0.0 | 3.0 | 0.02 | 0.42 | 0.02 | 84 | 1009.8 |
| 20260506115515 | 45 | 284 | 1.0 | 4.0 | 0.02 | 0.42 | 0.02 | 84 | 1009.8 |
| 20260506115014 | 45 | 263 | 0.0 | 4.0 | 0.01 | 0.41 | 0.01 | 84 | 1009.7 |
| 20260506114540 | 45 | 301 | 1.0 | 5.0 | 0.01 | 0.41 | 0.01 | 84 | 1009.6 |
| 20260506114015 | 45 | 297 | 1.0 | 5.0 | 0.01 | 0.41 | 0.01 | 84 | 1009.5 |
| 20260506113515 | 45 | 281 | 1.0 | 6.0 | 0.01 | 0.41 | 0.01 | 84 | 1009.5 |
| 20260506113030 | 45 | 305 | 1.0 | 6.0 | 0.01 | 0.41 | 0.01 | 84 | 1009.4 |
| 20260506112516 | 45 | 292 | 1.0 | 6.0 | 0.01 | 0.41 | 0.01 | 84 | 1009.2 |
| 20260506112012 | 46 | 261 | 1.0 | 6.0 | 0.01 | 0.41 | 0.01 | 84 | 1009.2 |
| 20260506111537 | 46 | 271 | 0.0 | 6.0 | 0.00 | 0.40 | 0.00 | 84 | 1009.3 |
| 20260506111015 | 46 | 239 | 0.0 | 6.0 | 0.00 | 0.40 | 0.00 | 84 | 1009.2 |
| 20260506110520 | 46 | 0 | 1.0 | 6.0 | 0.00 | 0.40 | 0.00 | 84 | 1009.1 |
| 20260506110035 | 46 | 252 | 0.0 | 7.0 | 0.00 | 0.40 | 0.00 | 84 | 1009.0 |
| 20260506105515 | 46 | 267 | 2.0 | 7.0 | 0.00 | 0.40 | 0.00 | 84 | 1009.1 |
| 20260506105014 | 46 | 213 | 1.0 | 7.0 | 0.00 | 0.40 | 0.00 | 84 | 1009.1 |
| 20260506104533 | 46 | 276 | 2.0 | 8.0 | 0.00 | 0.40 | 0.00 | 83 | 1009.0 |
| 20260506104014 | 46 | 169 | 2.0 | 8.0 | 0.00 | 0.40 | 0.00 | 83 | 1009.0 |
| 20260506103516 | 46 | 244 | 2.0 | 9.0 | 0.00 | 0.40 | 0.00 | 83 | 1008.9 |
| 20260506103030 | 46 | 205 | 2.0 | 9.0 | 0.00 | 0.40 | 0.00 | 83 | 1009.0 |
| 20260506102517 | 46 | 198 | 3.0 | 8.0 | 0.00 | 0.40 | 0.00 | 83 | 1009.0 |
| 20260506102016 | 46 | 165 | 1.0 | 8.0 | 0.00 | 0.40 | 0.00 | 83 | 1008.8 |
| 20260506101547 | 46 | 258 | 2.0 | 7.0 | 0.00 | 0.40 | 0.00 | 82 | 1008.7 |
| 20260506101016 | 46 | 169 | 2.0 | 8.0 | 0.00 | 0.40 | 0.00 | 82 | 1008.6 |
| 20260506100518 | 46 | 205 | 2.0 | 8.0 | 0.00 | 0.40 | 0.00 | 82 | 1008.6 |
| 20260506100035 | 46 | 217 | 3.0 | 7.0 | 0.00 | 0.40 | 0.00 | 82 | 1008.7 |
| 20260506095515 | 46 | 236 | 1.0 | 7.0 | 0.00 | 0.40 | 0.00 | 82 | 1008.4 |
| 20260506095015 | 46 | 244 | 2.0 | 7.0 | 0.00 | 0.40 | 0.00 | 82 | 1008.4 |
| 20260506094536 | 46 | 177 | 2.0 | 7.0 | 0.00 | 0.40 | 0.00 | 82 | 1008.3 |
| 20260506094014 | 46 | 210 | 3.0 | 9.0 | 0.00 | 0.40 | 0.00 | 82 | 1008.5 |
| 20260506093515 | 46 | 188 | 4.0 | 10.0 | 0.00 | 0.40 | 0.00 | 82 | 1008.6 |
| 20260506093033 | 46 | 201 | 4.0 | 10.0 | 0.00 | 0.40 | 0.00 | 82 | 1008.5 |
| 20260506092514 | 46 | 212 | 2.0 | 7.0 | 0.00 | 0.40 | 0.00 | 81 | 1008.4 |
| 20260506092019 | 46 | 167 | 1.0 | 6.0 | 0.00 | 0.40 | 0.00 | 82 | 1008.5 |
| 20260506091530 | 46 | 215 | 3.0 | 9.0 | 0.00 | 0.40 | 0.00 | 81 | 1008.5 |
| 20260506091015 | 46 | 230 | 3.0 | 10.0 | 0.00 | 0.40 | 0.00 | 81 | 1008.7 |
| 20260506090515 | 46 | 191 | 3.0 | 10.0 | 0.00 | 0.40 | 0.00 | 81 | 1008.7 |
| 20260506090030 | 46 | 167 | 3.0 | 9.0 | 0.00 | 0.40 | 0.00 | 80 | 1008.6 |
| 20260506085515 | 46 | 194 | 3.0 | 9.0 | 0.00 | 0.40 | 0.00 | 81 | 1008.8 |
| 20260506085016 | 46 | 216 | 2.0 | 9.0 | 0.00 | 0.40 | 0.00 | 80 | 1008.9 |
| 20260506084533 | 46 | 196 | 2.0 | 8.0 | 0.00 | 0.40 | 0.00 | 80 | 1008.8 |
| 20260506084015 | 46 | 225 | 3.0 | 8.0 | 0.00 | 0.40 | 0.00 | 80 | 1008.3 |
| 20260506083516 | 46 | 194 | 2.0 | 10.0 | 0.00 | 0.40 | 0.00 | 80 | 1008.3 |
| 20260506083034 | 46 | 215 | 4.0 | 11.0 | 0.00 | 0.40 | 0.00 | 80 | 1008.6 |
| 20260506082516 | 46 | 218 | 4.0 | 12.0 | 0.00 | 0.40 | 0.00 | 79 | 1008.6 |
| 20260506082021 | 47 | 219 | 3.0 | 13.0 | 0.00 | 0.40 | 0.00 | 80 | 1008.5 |
| 20260506081534 | 47 | 205 | 4.0 | 13.0 | 0.00 | 0.40 | 0.00 | 80 | 1008.5 |
| 20260506081018 | 47 | 159 | 5.0 | 12.0 | 0.00 | 0.40 | 0.00 | 80 | 1008.5 |
| 20260506080520 | 47 | 226 | 3.0 | 12.0 | 0.00 | 0.40 | 0.00 | 80 | 1008.5 |
| 20260506073516 | 47 | 208 | 4.0 | 12.0 | 0.00 | 0.40 | 0.00 | 81 | 1007.9 |
| 20260506073038 | 48 | 200 | 5.0 | 12.0 | 0.00 | 0.40 | 0.00 | 81 | 1007.9 |
| 20260506072518 | 48 | 180 | 5.0 | 14.0 | 0.00 | 0.40 | 0.00 | 81 | 1008.0 |
| 20260506072015 | 48 | 189 | 5.0 | 14.0 | 0.00 | 0.40 | 0.00 | 82 | 1008.2 |
| 20260506071530 | 48 | 233 | 5.0 | 12.0 | 0.00 | 0.40 | 0.00 | 82 | 1008.1 |